Location: Newark
(45.1586°N, 73.9286°W)
Time: 11:03:54
(UTC+00:00)

Envisat - Visible Passes

Search period start: 29 September 2020 00:00
Search period end: 09 October 2020 00:00
Orbit: 764 x 766 km, 98.1° (Epoch: 29 September)

Date Brightness Start Highest point End Pass type
(mag) Time Alt. Az. Time Alt. Az. Time Alt. Az.
30 Sep 6.1 23:22:38 10° SW 23:26:08 19° W 23:29:38 10° NW visible
01 Oct 6.1 09:49:37 10° NE 09:52:59 17° E 09:56:19 10° SE visible
02 Oct 6.8 23:51:06 10° W 23:51:54 10° W 23:52:43 10° WNW visible
03 Oct 5.3 10:14:14 10° NE 10:18:40 29° E 10:23:04 10° SSE visible
03 Oct 5.8 23:10:40 10° SW 23:14:39 23° W 23:18:40 10° NW visible
04 Oct 6.3 09:38:54 10° ENE 09:41:29 14° E 09:44:02 10° ESE visible
05 Oct 6.4 23:37:56 10° WSW 23:40:23 13° W 23:42:51 10° WNW visible
06 Oct 5.7 10:03:08 10° NE 10:07:12 24° E 10:11:15 10° SE visible
06 Oct 5.4 22:58:50 10° SSW 23:03:11 29° W 23:07:35 10° NW visible
07 Oct 6.6 09:28:49 10° ENE 09:29:57 11° E 09:31:05 10° E visible
08 Oct 4.7 10:28:03 10° NNE 10:32:50 40° E 10:37:35 10° SSE visible
08 Oct 6.2 23:25:36 10° SW 23:28:52 17° W 23:32:10 10° NW visible
